Regional Weather Roundup
Issued by NWS Cleveland, OH

Home | Current Version | Previous Version | Text Only | Print | Product List | Glossary Off
Versions: 1 2 3 4 5 6 7 8 9 10 11 12 13 14 15 16 17 18 19 20 21 22 23 24 25 26 27 28 29 30 31 32 33 34 35 36 37 38 39 40 41 42 43 44 45 46 47 48 49 50

000
ASUS41 KCLE 062202
RWRCLE
OHIO REGIONAL WEATHER ROUNDUP
NATIONAL WEATHER SERVICE CLEVELAND, OH
600 PM EDT MON JUL 06 2015

NOTE: "FAIR" INDICATES FEW OR NO CLOUDS BELOW 12,000 FEET WITH NO
SIGNIFICANT WEATHER AND/OR OBSTRUCTIONS TO VISIBILITY.

OHZ001>008-015>018-024>027-034-035-043-044-062300-
   NORTHWEST OHIO

CITY           SKY/WX    TMP DP  RH WIND       PRES   REMARKS
DEFIANCE       MOSUNNY   85  65  51 S13       29.97F
FINDLAY        SUNNY     83  61  47 S8        29.98F
TOLEDO EXPRESS SUNNY     83  61  47 SW8       29.96F
TOLEDO EXEC    SUNNY     84  61  45 S10       29.98F
LIMA           SUNNY     83  64  52 S8        29.99F
$$

OHZ009>014-019>023-028>033-038-089-062300-
   NORTHEAST OHIO

CITY           SKY/WX    TMP DP  RH WIND       PRES   REMARKS
CLE-HOPKINS    MOSUNNY   81  62  52 NE5       30.03S
CLE-LAKEFRONT  SUNNY     77  64  64 NE7       30.00F
CUY CO. ARPT   NOT AVBL
LORAIN-ELYRIA  MOSUNNY   82  63  52 N7        30.01S
ASHTABULA      PTSUNNY   68  64  87 S3        30.04F
AKRON-CANTON   PTSUNNY   83  68  60 SE10      30.03S
WOOSTER        CLOUDY    81  66  60 W14       30.03S
MANSFIELD      MOSUNNY   82  64  54 SW7       30.03F
YOUNGSTOWN     PTSUNNY   74  67  78 SW7       30.04S THUNDER
$$

OHZ042-051>053-060>062-070>072-077>081-062300-
  SOUTHWEST OHIO

CITY           SKY/WX    TMP DP  RH WIND       PRES   REMARKS
CINC-COVINGTON MOSUNNY   83  67  58 SW9       30.02F HAZE
CINC-LUNKEN    MOSUNNY   84  67  56 S12       30.00F
HAMILTON       SUNNY     85  69  58 CALM      30.01F
DAYTON         MOSUNNY   83  65  54 S6        30.02F
WRIGHT-PAT AFB NOT AVBL
DAYTON GENERAL MOSUNNY   82  65  56 S10       30.01F
WILMINGTON     SUNNY     82  61  48 W8        30.03F
$$

OHZ036-037-039>041-045>050-054>059-063>069-073>076-082>088-062300-
  CENTRAL AND SOUTHEAST OHIO

CITY           SKY/WX    TMP DP  RH WIND       PRES   REMARKS
COLUMBUS       MOSUNNY   83  61  47 SW9       30.01S
OSU AIRPORT    SUNNY     82  61  48 SW9       30.02F
BOLTON FIELD   SUNNY     81  63  54 SW7       30.04S
RICKENBACK AFB NOT AVBL
NEWARK         MOSUNNY   85  64  49 W7        30.02R
MARION         SUNNY     82  57  42 W8        30.02F
LANCASTER      SUNNY     82  66  58 W10       30.04R
ZANESVILLE     NOT AVBL
NEW PHILLY     CLOUDY    73  68  84 SE8       30.04S
$$


USA.gov is the U.S. government's official web portal to all federal, state and local government web resources and services.